DW4725 Weather Reports


time (UTC)temp
C
wind
direction
speed
KPH
gust
KPH
rain 1hr
cm
rain 24hr
cm
rain mn
cm
humidity
%
barometer
mb
20260505164651 11 236 3.2 16.1 0.00 0.84 0.84 93 1009.2
20260505164444 11 240 4.8 16.1 0.00 0.84 0.84 93 1009.3
20260505164242 11 249 4.8 16.1 0.00 0.84 0.84 93 1009.3
20260505164032 11 245 4.8 16.1 0.00 0.84 0.84 92 1009.3
20260505163825 11 223 6.4 16.1 0.00 0.84 0.84 92 1009.3
20260505163617 11 240 6.4 16.1 0.00 0.84 0.84 91 1009.3
20260505163415 11 240 6.4 16.1 0.00 0.84 0.84 91 1009.4
20260505163211 11 234 6.4 16.1 0.00 0.84 0.84 90 1009.4
20260505163003 11 233 8.0 16.1 0.00 0.84 0.84 90 1009.4
20260505162759 11 246 6.4 16.1 0.00 0.84 0.84 91 1009.3
20260505162554 11 205 8.0 17.7 0.00 0.84 0.84 91 1009.3
20260505162355 11 240 8.0 17.7 0.00 0.84 0.84 91 1009.3
20260505162150 11 220 8.0 17.7 0.00 0.84 0.84 90 1009.3
20260505161950 11 226 8.0 17.7 0.00 0.84 0.84 91 1009.2
20260505161747 11 227 8.0 17.7 0.00 0.84 0.84 90 1009.3
20260505161537 11 219 8.0 17.7 0.00 0.84 0.84 90 1009.3
20260505161328 11 228 8.0 17.7 0.00 0.84 0.84 89 1009.3
20260505160759 12 233 8.0 17.7 0.00 0.84 0.84 89 1009.2
20260505160556 12 239 8.0 17.7 0.00 0.84 0.84 89 1009.1
20260505160353 12 246 6.4 17.7 0.00 0.84 0.84 88 1009.1
20260505160144 12 220 6.4 17.7 0.00 0.84 0.84 90 1009.0
20260505153324 12 210 6.4 17.7 0.00 0.84 0.84 94 1008.9
20260505153123 11 198 6.4 17.7 0.00 0.84 0.84 94 1008.9
20260505152913 11 252 8.0 17.7 0.00 0.84 0.84 95 1008.9
20260505152704 11 234 8.0 17.7 0.00 0.84 0.84 95 1008.9
20260505152504 11 242 6.4 16.1 0.00 0.84 0.84 95 1008.9
20260505151628 11 238 4.8 17.7 0.00 0.86 0.84 96 1008.8
20260505151107 11 259 6.4 17.7 0.00 0.86 0.84 96 1008.8
20260505150859 11 233 6.4 17.7 0.00 0.86 0.84 96 1008.9
20260505150654 11 235 6.4 20.9 0.00 0.86 0.84 95 1009.0
20260505150454 11 207 8.0 20.9 0.00 0.86 0.84 96 1009.0
20260505150252 11 245 8.0 20.9 0.00 0.86 0.84 97 1008.9
20260505140538 10 219 6.4 17.7 0.00 0.94 0.84 97 1009.1
20260505140332 10 248 6.4 17.7 0.00 0.94 0.84 97 1009.0
20260505140132 10 247 6.4 17.7 0.00 0.94 0.84 96 1009.1
20260505130253 10 241 9.7 20.9 0.00 1.04 0.79 98 1009.1
20260505125025 9 218 12.9 22.5 0.00 1.04 0.79 97 1009.0
20260505124818 9 247 12.9 22.5 0.00 1.04 0.79 97 1009.0
20260505124616 9 227 12.9 22.5 0.00 1.04 0.79 96 1009.1
20260505124412 9 222 12.9 22.5 0.00 1.04 0.79 96 1009.0
20260505124207 9 239 11.3 22.5 0.00 1.02 0.79 97 1009.0
20260505123639 9 235 11.3 19.3 0.00 1.02 0.76 97 1009.2
20260505123112 9 215 11.3 17.7 0.00 1.02 0.76 97 1009.2
20260505122908 9 246 9.7 17.7 0.00 1.02 0.76 97 1009.3
20260505122703 9 245 8.0 17.7 0.00 1.02 0.76 97 1009.2
20260505122457 9 226 8.0 17.7 0.00 1.02 0.76 97 1009.3
20260505122251 9 250 6.4 17.7 0.00 1.02 0.76 97 1009.3
20260505121730 9 283 8.0 17.7 0.08 1.02 0.76 97 1009.3
20260505121527 10 224 6.4 17.7 0.08 1.02 0.76 97 1009.3
20260505121321 10 248 6.4 17.7 0.08 1.02 0.76 97 1009.4
20260505120756 10 240 6.4 17.7 0.08 1.02 0.76 96 1009.3
20260505120239 10 268 6.4 17.7 0.08 1.02 0.74 96 1009.4
20260505120037 10 238 8.0 20.9 0.08 1.02 0.74 95 1009.4
20260505115834 10 227 8.0 20.9 0.08 1.02 0.74 95 1009.3
20260505115635 10 247 8.0 20.9 0.08 1.02 0.74 95 1009.4
20260505115429 10 235 9.7 20.9 0.08 1.02 0.74 95 1009.4
20260505115228 10 245 9.7 20.9 0.08 0.99 0.74 94 1009.4
20260505114707 10 229 11.3 20.9 0.00 0.99 0.74 94 1009.4
20260505114501 10 233 11.3 20.9 0.00 0.99 0.74 93 1009.4
20260505114253 10 236 11.3 20.9 0.00 0.99 0.74 93 1009.3
20260505114051 10 240 9.7 20.9 0.00 0.97 0.71 93 1009.4
20260505113847 10 276 9.7 17.7 0.00 0.97 0.71 93 1009.4
20260505113649 10 236 8.0 16.1 0.00 0.97 0.71 93 1009.4
20260505113444 11 226 6.4 16.1 0.00 0.97 0.71 94 1009.4
20260505112928 11 206 6.4 16.1 0.00 0.97 0.71 92 1009.3
20260505112725 11 240 6.4 16.1 0.00 0.97 0.71 93 1009.3
20260505112204 11 217 6.4 14.5 0.00 0.97 0.71 93 1009.3
20260505111637 11 215 4.8 14.5 0.00 0.97 0.71 94 1009.3
20260505111435 11 224 4.8 14.5 0.00 0.97 0.71 93 1009.3
20260505111226 11 220 4.8 19.3 0.00 0.97 0.71 93 1009.2
20260505110706 11 240 8.0 19.3 0.00 0.97 0.71 93 1009.3
20260505110502 11 240 8.0 19.3 0.00 0.97 0.71 92 1009.2
20260505110301 11 241 9.7 19.3 0.00 0.97 0.71 93 1009.2
20260505101753 11 238 4.8 16.1 0.00 0.97 0.71 94 1009.2
20260505101553 11 227 4.8 12.9 0.00 0.97 0.71 94 1009.2
20260505101347 11 243 3.2 12.9 0.00 0.97 0.71 94 1009.2
20260505100823 11 258 4.8 12.9 0.00 0.97 0.71 94 1009.0
20260505100620 11 240 4.8 12.9 0.00 0.97 0.71 95 1009.1
20260505100415 11 232 4.8 12.9 0.00 0.97 0.71 95 1009.0
20260505100215 11 237 4.8 12.9 0.00 0.97 0.71 94 1009.1
20260505100010 11 223 4.8 12.9 0.00 0.97 0.71 95 1009.0
20260505095803 11 248 3.2 9.7 0.00 0.97 0.71 95 1009.2
20260505095557 11 240 3.2 9.7 0.00 0.97 0.71 96 1009.1
20260505095357 11 238 1.6 8.0 0.00 0.97 0.71 96 1009.1
20260505095149 11 241 1.6 8.0 0.00 0.97 0.71 96 1009.2
20260505094941 10 235 1.6 8.0 0.00 0.97 0.71 95 1009.1
20260505094738 11 240 1.6 8.0 0.00 0.97 0.71 96 1009.1
20260505094535 11 245 1.6 8.0 0.00 0.97 0.71 96 1009.1
20260505094331 11 262 1.6 8.0 0.00 0.97 0.71 96 1009.1
20260505094124 11 229 1.6 8.0 0.00 0.97 0.71 96 1009.1
20260505093922 11 255 1.6 6.4 0.00 0.97 0.71 97 1009.1
20260505093717 10 236 1.6 4.8 0.00 0.97 0.71 96 1009.1
20260505093510 10 286 1.6 4.8 0.00 0.97 0.71 95 1009.1
20260505093302 11 286 1.6 4.8 0.00 0.97 0.71 95 1009.1
20260505093103 11 288 0.0 4.8 0.00 0.97 0.71 96 1009.1
20260505092857 11 266 0.0 4.8 0.00 0.97 0.71 95 1009.0
20260505092333 11 245 0.0 4.8 0.00 0.97 0.71 94 1009.0
20260505092123 11 276 0.0 1.6 0.00 0.97 0.71 95 1009.0
20260505091921 11 260 0.0 0.0 0.00 0.97 0.71 95 1009.0
20260505091717 11 271 0.0 0.0 0.00 0.97 0.71 95 1009.0
20260505091158 11 300 0.0 1.6 0.00 0.97 0.71 95 1009.0
20260505090958 11 227 0.0 0.0 0.00 0.97 0.71 95 1009.0
20260505090438 11 273 0.0 3.2 0.00 0.97 0.71 96 1008.9
20260505090234 11 45 0.0 3.2 0.00 0.97 0.71 97 1008.9
20260505090029 11 65 0.0 3.2 0.00 0.97 0.71 98 1008.9
20260505085820 11 23 0.0 0.0 0.00 0.97 0.71 98 1008.8
20260505085259 10 262 0.0 0.0 0.00 0.97 0.71 98 1008.8
20260505084735 10 238 0.0 0.0 0.00 0.97 0.71 98 1008.8
20260505084526 10 236 0.0 0.0 0.00 0.97 0.71 98 1008.8
20260505083323 10 242 0.0 0.0 0.00 0.97 0.71 98 1008.8
20260505083115 10 242 0.0 0.0 0.00 0.97 0.71 98 1008.8
20260505082914 10 242 0.0 0.0 0.00 0.97 0.71 98 1008.8
20260505082713 10 242 0.0 0.0 0.00 0.97 0.71 98 1008.8
20260505082513 10 242 0.0 0.0 0.00 0.97 0.71 98 1008.8
20260505081944 10 242 0.0 0.0 0.00 0.97 0.71 98 1008.7
20260505081047 10 268 0.0 0.0 0.00 0.97 0.71 98 1008.9
20260505080844 10 23 0.0 0.0 0.00 0.97 0.71 98 1008.8
20260505080635 10 51 0.0 0.0 0.00 0.97 0.71 98 1008.9
20260505080431 10 50 0.0 1.6 0.00 0.97 0.71 98 1008.9
20260505080223 10 45 0.0 1.6 0.00 0.97 0.71 98 1008.9
20260505080020 10 45 0.0 1.6 0.00 0.97 0.71 99 1008.9
20260505075144 9 61 0.0 1.6 0.00 0.97 0.71 99 1008.9
20260505074623 9 63 0.0 3.2 0.00 0.97 0.71 99 1008.9
20260505074417 9 65 0.0 3.2 0.00 0.97 0.71 99 1008.9
20260505074214 9 60 0.0 6.4 0.00 0.97 0.71 99 1008.9
20260505074004 9 55 0.0 6.4 0.00 0.97 0.71 99 1008.9
20260505073802 9 47 0.0 6.4 0.00 0.97 0.71 99 1008.8
20260505073556 9 117 0.0 6.4 0.00 0.97 0.71 99 1008.9
20260505073023 9 120 1.6 9.7 0.00 0.97 0.71 100 1008.9
20260505072820 9 95 1.6 9.7 0.00 0.97 0.71 100 1008.9
20260505072618 9 79 1.6 9.7 0.00 0.97 0.71 99 1009.0
20260505072052 8 70 3.2 9.7 0.00 0.97 0.71 99 1008.9
20260505071846 8 56 3.2 9.7 0.00 0.97 0.71 99 1008.9
20260505071637 8 82 3.2 9.7 0.00 0.97 0.71 99 1008.9
20260505071436 8 89 1.6 9.7 0.00 0.97 0.71 99 1009.0
20260505071227 8 57 1.6 8.0 0.00 0.97 0.71 100 1009.1
20260505070337 8 86 1.6 6.4 0.00 0.97 0.71 100 1009.2
20260505070135 8 88 0.0 6.4 0.00 0.97 0.71 100 1009.2
20260505065933 8 104 0.0 4.8 0.00 0.97 0.71 100 1009.2
20260505065414 8 98 0.0 3.2 0.00 0.97 0.71 100 1009.3
20260505065212 8 113 0.0 3.2 0.00 0.97 0.71 100 1009.4
20260505065012 8 119 0.0 3.2 0.00 0.97 0.71 100 1009.3
20260505064443 8 100 0.0 3.2 0.00 0.97 0.71 100 1009.3
20260505064242 8 103 0.0 3.2 0.00 0.97 0.71 100 1009.4
20260505064037 8 73 0.0 3.2 0.00 0.97 0.71 100 1009.3
20260505063828 8 113 0.0 3.2 0.00 0.97 0.71 100 1009.4
20260505063618 8 110 0.0 3.2 0.00 0.97 0.71 100 1009.4
20260505063414 8 110 0.0 3.2 0.08 0.97 0.71 100 1009.5
20260505062851 8 105 0.0 3.2 0.08 0.97 0.71 100 1009.6
20260505062650 8 103 0.0 3.2 0.08 0.97 0.71 100 1009.6
20260505062444 8 120 0.0 3.2 0.08 0.97 0.71 100 1009.6
20260505062237 8 110 0.0 1.6 0.08 0.97 0.71 100 1009.6
20260505061714 8 105 0.0 0.0 0.08 0.94 0.69 100 1009.7
20260505061512 8 105 0.0 0.0 0.08 0.94 0.69 100 1009.7
20260505060946 8 110 0.0 0.0 0.08 0.94 0.69 100 1009.8
20260505060746 8 240 0.0 0.0 0.08 0.94 0.69 100 1009.8
20260505060543 8 240 0.0 0.0 0.08 0.94 0.69 100 1009.8
20260505060023 8 240 0.0 0.0 0.10 0.94 0.66 100 1009.9
20260505055822 8 240 0.0 0.0 0.10 0.94 0.66 100 1009.9
20260505055619 8 240 0.0 0.0 0.10 0.94 0.66 100 1009.9
20260505055053 8 240 0.0 0.0 0.10 0.91 0.64 100 1010.0
20260505054851 8 240 0.0 0.0 0.15 0.91 0.64 100 1010.0
20260505054648 8 240 0.0 0.0 0.15 0.91 0.64 100 1010.0
20260505054123 8 240 0.0 0.0 0.15 0.89 0.64 100 1010.0
20260505053921 8 240 0.0 0.0 0.18 0.89 0.64 100 1010.0
20260505053714 8 240 0.0 0.0 0.18 0.89 0.64 100 1010.0
20260505053506 8 240 0.0 0.0 0.18 0.89 0.64 100 1010.0
20260505053301 8 240 0.0 4.8 0.15 0.86 0.61 100 1010.0
20260505053055 8 242 0.0 4.8 0.15 0.86 0.61 100 1010.0
20260505052848 8 243 0.0 4.8 0.15 0.86 0.61 100 1010.1
20260505052639 8 243 0.0 8.0 0.18 0.84 0.58 100 1010.0
20260505052436 8 241 0.0 8.0 0.25 0.84 0.58 100 1010.0
20260505052236 8 256 0.0 8.0 0.25 0.84 0.58 100 1010.1
20260505052033 8 244 1.6 8.0 0.25 0.84 0.58 100 1010.0
20260505051827 8 245 1.6 8.0 0.36 0.84 0.56 100 1010.0
20260505051617 8 249 1.6 9.7 0.36 0.84 0.56 100 1010.1
20260505051417 8 233 1.6 9.7 0.53 0.81 0.56 100 1010.0
20260505051217 8 234 1.6 9.7 0.58 0.79 0.53 100 1010.0
20260505051014 8 223 1.6 9.7 0.56 0.76 0.51 100 1010.0
20260505050805 8 237 1.6 9.7 0.43 0.74 0.51 100 1010.1
20260505050601 8 247 1.6 9.7 0.38 0.74 0.48 100 1010.1
20260505050352 8 240 1.6 9.7 0.56 0.74 0.46 100 1010.2
20260505050144 8 242 1.6 9.7 0.46 0.71 0.46 100 1010.2
20260505041426 8 236 4.8 14.5 0.13 0.46 0.20 100 1010.1
20260505041224 8 185 4.8 14.5 0.00 0.46 0.18 100 1010.1
20260505041016 8 197 4.8 12.9 0.00 0.46 0.18 100 1010.1
20260505040810 8 222 4.8 12.9 0.00 0.46 0.18 100 1010.1
20260505040609 8 197 3.2 12.9 0.00 0.46 0.18 100 1010.0
20260505035729 8 217 4.8 11.3 0.00 0.43 0.18 100 1010.1
20260505035523 8 249 4.8 11.3 0.00 0.43 0.18 100 1010.1
20260505035324 8 219 4.8 11.3 0.00 0.43 0.18 100 1010.2
20260505035120 8 213 3.2 11.3 0.00 0.43 0.18 99 1010.2
20260505034921 8 239 3.2 11.3 0.00 0.43 0.18 99 1010.2
20260505034719 8 243 3.2 11.3 0.00 0.43 0.18 99 1010.2
20260505034512 8 214 3.2 9.7 0.00 0.43 0.18 99 1010.2
20260505034312 8 202 3.2 9.7 0.00 0.43 0.18 99 1010.2
20260505034104 8 220 3.2 9.7 0.00 0.43 0.18 99 1010.3
20260505033859 8 228 3.2 9.7 0.00 0.43 0.18 99 1010.2
20260505033339 8 202 3.2 8.0 0.00 0.43 0.18 99 1010.3
20260505033139 8 236 1.6 6.4 0.00 0.43 0.18 99 1010.2
20260505032929 8 252 1.6 6.4 0.00 0.43 0.18 99 1010.3
20260505032720 8 242 1.6 6.4 0.00 0.43 0.18 99 1010.3
20260505032514 8 219 1.6 6.4 0.00 0.43 0.18 99 1010.2
20260505032307 8 216 0.0 3.2 0.00 0.43 0.18 99 1010.1
20260505032058 8 250 0.0 3.2 0.00 0.43 0.18 99 1010.2
20260505031848 8 232 0.0 3.2 0.00 0.43 0.18 99 1010.2
20260505031649 8 212 0.0 1.6 0.00 0.43 0.18 99 1010.2
20260505031439 8 236 0.0 1.6 0.00 0.43 0.18 99 1010.2
20260505031232 8 221 0.0 0.0 0.00 0.43 0.18 99 1010.3
20260505031029 8 231 0.0 0.0 0.00 0.41 0.15 99 1010.3
20260505030823 8 224 0.0 0.0 0.08 0.41 0.15 99 1010.2
20260505030621 8 203 0.0 0.0 0.08 0.41 0.15 99 1010.2
20260505030056 8 202 0.0 0.0 0.08 0.41 0.15 99 1010.3
20260505025849 8 203 0.0 0.0 0.08 0.41 0.15 99 1010.2
20260505025329 8 203 0.0 0.0 0.08 0.38 0.13 99 1010.2
20260505025125 8 203 0.0 0.0 0.10 0.38 0.13 99 1010.2
20260505024926 8 203 0.0 0.0 0.10 0.38 0.13 99 1010.2
20260505024726 8 203 0.0 0.0 0.10 0.38 0.13 99 1010.2
20260505024524 8 203 0.0 0.0 0.10 0.38 0.13 99 1010.3
20260505024317 8 203 0.0 0.0 0.10 0.38 0.13 99 1010.2
20260505024111 8 203 0.0 0.0 0.10 0.36 0.10 99 1010.3
20260505023908 8 202 0.0 0.0 0.15 0.36 0.10 99 1010.4
20260505023708 8 203 0.0 0.0 0.18 0.36 0.10 99 1010.4
20260505023508 8 203 0.0 0.0 0.20 0.36 0.10 99 1010.4
20260505023300 8 202 0.0 0.0 0.20 0.36 0.10 99 1010.4
20260505023101 8 202 0.0 0.0 0.15 0.36 0.08 99 1010.4
20260505022858 8 202 0.0 0.0 0.15 0.36 0.08 99 1010.4
20260505022658 8 202 0.0 0.0 0.15 0.36 0.08 99 1010.4
20260505022459 8 201 0.0 1.6 0.10 0.33 0.08 99 1010.5
20260505022256 8 236 0.0 0.0 0.10 0.33 0.08 99 1010.6
20260505022049 8 236 0.0 0.0 0.10 0.33 0.08 99 1010.5
20260505021514 8 236 0.0 0.0 0.08 0.30 0.05 99 1010.7
20260505021307 8 237 0.0 0.0 0.08 0.30 0.05 99 1010.7
20260505021106 8 236 0.0 0.0 0.08 0.30 0.05 99 1010.7
20260505020902 8 236 0.0 0.0 0.08 0.30 0.05 99 1010.8
20260505020701 8 237 0.0 0.0 0.00 0.28 0.03 99 1010.8
20260505020455 8 236 0.0 0.0 0.00 0.28 0.03 99 1010.8
20260505020247 8 236 0.0 0.0 0.00 0.28 0.03 99 1010.8
20260505015359 8 236 0.0 0.0 0.00 0.28 0.03 99 1010.8
20260505014833 8 236 0.0 8.0 0.00 0.28 0.00 99 1011.0
20260505014310 8 129 0.0 0.0 0.00 0.28 0.00 99 1011.0
20260505014110 8 129 0.0 0.0 0.00 0.28 0.00 99 1011.0
20260505013904 8 116 0.0 0.0 0.00 0.28 0.00 99 1011.0
20260505013703 8 116 0.0 1.6 0.00 0.28 0.00 99 1011.0
20260505013501 8 116 0.0 0.0 0.00 0.28 0.00 99 1011.0
20260505013300 8 106 0.0 0.0 0.00 0.28 0.00 99 1011.0
20260505013056 8 106 0.0 0.0 0.00 0.28 0.00 99 1011.0
20260505012855 8 106 0.0 0.0 0.00 0.28 0.00 99 1010.9
20260505012655 8 106 0.0 0.0 0.00 0.28 0.00 99 1010.9
20260505012455 8 99 0.0 0.0 0.00 0.28 0.00 99 1010.8
20260505012256 8 99 0.0 1.6 0.00 0.28 0.00 99 1010.6
20260505012052 8 89 0.0 0.0 0.00 0.28 0.00 100 1010.6
20260505011211 8 81 0.0 0.0 0.00 0.28 0.00 100 1010.7
20260505011005 8 81 0.0 0.0 0.00 0.28 0.00 100 1010.7
20260505010133 8 79 0.0 4.8 0.00 0.25 0.00 100 1010.8
20260505005923 8 79 0.0 4.8 0.00 0.25 0.00 100 1010.8
20260505005352 8 83 1.6 4.8 0.00 0.25 0.00 100 1010.9
20260505005146 8 62 1.6 4.8 0.00 0.25 0.00 100 1010.9
20260505004613 8 79 1.6 4.8 0.00 0.25 0.00 100 1011.0
20260505004408 8 71 1.6 4.8 0.00 0.25 0.00 100 1011.0
20260505004206 8 53 1.6 8.0 0.00 0.25 0.00 100 1011.1
20260505004006 8 67 1.6 8.0 0.00 0.25 0.00 100 1011.0
20260505003801 8 41 1.6 8.0 0.00 0.25 0.00 100 1011.1
20260505003551 8 103 1.6 8.0 0.00 0.25 0.00 100 1011.2
20260505003025 8 59 3.2 8.0 0.00 0.25 0.00 100 1011.2
20260505002822 8 80 3.2 8.0 0.00 0.25 0.00 100 1011.2
20260505002620 8 103 1.6 8.0 0.00 0.25 0.00 100 1011.2
20260505002416 8 84 1.6 8.0 0.00 0.25 0.00 100 1011.2
20260505002210 8 47 1.6 6.4 0.00 0.25 0.00 100 1011.1
20260505002009 8 58 1.6 6.4 0.00 0.25 0.00 100 1011.1
20260505001444 8 56 1.6 6.4 0.00 0.25 0.00 100 1011.3
20260505001235 8 62 1.6 6.4 0.00 0.25 0.00 100 1011.3
20260505000701 8 94 1.6 6.4 0.00 0.25 0.00 100 1011.3
20260505000456 8 65 3.2 6.4 0.00 0.25 0.00 100 1011.3
20260505000250 8 53 3.2 6.4 0.00 0.25 0.00 100 1011.3
20260505000041 8 107 3.2 6.4 0.00 0.25 0.00 99 1011.4
20260504235831 8 81 3.2 6.4 0.00 0.25 0.00 100 1011.4
20260504235625 8 95 1.6 6.4 0.00 0.25 0.00 99 1011.4
20260504235104 8 89 1.6 6.4 0.00 0.25 0.00 99 1011.4
20260504234903 8 102 1.6 6.4 0.00 0.25 0.00 99 1011.4
20260504234658 8 90 1.6 6.4 0.00 0.25 0.00 99 1011.5
20260504234133 8 58 3.2 11.3 0.00 0.25 0.00 99 1011.5
20260504233927 8 118 3.2 11.3 0.00 0.25 0.00 99 1011.5
20260504233722 8 120 3.2 11.3 0.00 0.25 0.00 99 1011.6
20260504233513 8 65 3.2 11.3 0.00 0.25 0.00 99 1011.5
20260504232944 8 96 3.2 11.3 0.00 0.25 0.00 99 1011.6
20260504232740 8 80 3.2 11.3 0.00 0.25 0.00 99 1011.6
20260504232537 8 108 3.2 11.3 0.00 0.25 0.00 99 1011.6
20260504232333 8 65 3.2 9.7 0.00 0.25 0.00 99 1011.7
20260504232123 8 96 3.2 9.7 0.00 0.25 0.00 99 1011.7
20260504231922 8 84 4.8 9.7 0.00 0.25 0.00 99 1011.6
20260504231723 8 49 4.8 9.7 0.00 0.25 0.00 99 1011.6
20260504231513 8 64 4.8 9.7 0.00 0.25 0.00 99 1011.6
20260504231312 8 83 4.8 11.3 0.00 0.25 0.00 99 1011.6
20260504230737 8 91 4.8 11.3 0.00 0.25 0.00 99 1011.7
20260504230529 8 92 4.8 11.3 0.00 0.25 0.00 99 1011.7
20260504230323 8 66 4.8 11.3 0.00 0.25 0.00 99 1011.7
20260504230113 8 53 4.8 11.3 0.00 0.25 0.00 99 1011.8
20260504225912 8 86 4.8 11.3 0.00 0.25 0.00 99 1011.8
20260504225710 8 105 4.8 11.3 0.00 0.25 0.00 99 1011.8
20260504225505 8 62 3.2 11.3 0.00 0.25 0.00 99 1011.9
20260504225304 8 84 1.6 8.0 0.00 0.25 0.00 99 1011.9
20260504224732 8 82 1.6 8.0 0.00 0.25 0.00 99 1012.0
20260504224206 8 75 1.6 8.0 0.00 0.25 0.00 99 1012.0
20260504223636 7 69 0.0 4.8 0.00 0.25 0.00 99 1012.0
20260504222424 8 77 0.0 3.2 0.00 0.25 0.00 98 1012.1
20260504222222 8 78 0.0 3.2 0.00 0.25 0.00 98 1012.1
20260504222012 8 68 0.0 3.2 0.00 0.25 0.00 99 1012.1
20260504221806 8 72 0.0 3.2 0.00 0.25 0.00 99 1012.1
20260504221559 8 89 0.0 1.6 0.00 0.25 0.00 99 1012.1
20260504221358 8 89 0.0 1.6 0.00 0.25 0.00 99 1012.2
20260504221154 8 96 0.0 1.6 0.00 0.25 0.00 99 1012.1
20260504220627 8 97 0.0 0.0 0.00 0.25 0.00 99 1012.2
20260504220426 8 97 0.0 0.0 0.00 0.25 0.00 99 1012.2
20260504220216 8 97 0.0 1.6 0.00 0.25 0.00 99 1012.2
20260504220014 8 97 0.0 1.6 0.00 0.25 0.00 99 1012.3
20260504215804 8 100 0.0 1.6 0.00 0.25 0.25 99 1012.4
20260504215559 8 100 0.0 1.6 0.00 0.25 0.25 99 1012.4
20260504215042 8 101 0.0 0.0 0.00 0.25 0.25 98 1012.4
20260504214832 8 101 0.0 0.0 0.00 0.25 0.25 98 1012.4
20260504214626 8 100 0.0 0.0 0.00 0.25 0.25 98 1012.4
20260504214426 8 100 0.0 0.0 0.00 0.25 0.25 98 1012.4
20260504214226 8 101 0.0 0.0 0.00 0.25 0.25 98 1012.4
20260504213658 8 101 0.0 0.0 0.00 0.25 0.25 98 1012.4
20260504213451 8 100 0.0 0.0 0.00 0.25 0.25 98 1012.4
20260504213248 8 100 0.0 0.0 0.00 0.25 0.25 98 1012.4
20260504213043 8 100 0.0 0.0 0.00 0.25 0.25 98 1012.6
20260504212834 8 100 0.0 0.0 0.00 0.25 0.25 98 1012.6
20260504212635 8 101 0.0 0.0 0.00 0.25 0.25 98 1012.6
20260504212428 8 100 0.0 0.0 0.00 0.25 0.25 98 1012.7
20260504211905 8 101 0.0 0.0 0.00 0.25 0.25 98 1012.5
20260504211655 8 100 0.0 0.0 0.00 0.25 0.25 98 1012.5
20260504211454 8 100 0.0 0.0 0.00 0.25 0.25 97 1012.6
20260504210939 8 100 0.0 1.6 0.00 0.25 0.25 97 1012.6
20260504210732 8 110 0.0 0.0 0.00 0.25 0.25 97 1012.6
20260504210213 8 111 1.6 9.7 0.00 0.25 0.25 97 1012.6
20260504210007 8 122 3.2 9.7 0.00 0.25 0.25 97 1012.6
20260504205803 8 119 3.2 9.7 0.00 0.25 0.25 97 1012.5
20260504205557 8 124 3.2 9.7 0.00 0.25 0.25 97 1012.5
20260504205352 8 136 4.8 9.7 0.00 0.25 0.25 97 1012.5
20260504205146 8 104 4.8 9.7 0.00 0.25 0.25 97 1012.5
20260504204936 8 117 3.2 9.7 0.00 0.25 0.25 96 1012.5
20260504204731 8 115 3.2 9.7 0.00 0.25 0.25 96 1012.5
20260504204209 8 120 1.6 6.4 0.00 0.25 0.25 95 1012.6
20260504204008 8 126 1.6 6.4 0.00 0.25 0.25 96 1012.6
20260504203806 8 92 1.6 6.4 0.00 0.25 0.25 96 1012.6
20260504203603 8 100 1.6 4.8 0.00 0.25 0.25 96 1012.6
20260504203359 8 126 0.0 4.8 0.00 0.25 0.25 96 1012.6
20260504203154 8 126 0.0 4.8 0.00 0.25 0.25 96 1012.6
20260504202626 8 103 0.0 3.2 0.00 0.25 0.25 97 1012.7
20260504202421 8 116 0.0 3.2 0.00 0.25 0.25 97 1012.8
20260504202213 8 124 0.0 3.2 0.00 0.25 0.25 97 1012.8
20260504202007 8 120 0.0 3.2 0.00 0.25 0.25 97 1012.9
20260504201803 8 119 1.6 3.2 0.00 0.25 0.25 97 1012.8
20260504201559 8 132 1.6 3.2 0.00 0.25 0.25 97 1012.7
20260504201354 8 107 1.6 0.0 0.00 0.25 0.25 98 1012.8
20260504201147 8 113 3.2 9.7 0.00 0.25 0.25 98 1012.8
20260504200948 8 89 3.2 9.7 0.00 0.25 0.25 98 1012.8
20260504200749 8 136 3.2 9.7 0.00 0.25 0.25 98 1012.8
20260504200548 8 117 3.2 9.7 0.00 0.25 0.25 98 1012.9
20260504200347 8 117 3.2 9.7 0.00 0.25 0.25 98 1012.9
20260504200144 8 121 3.2 9.7 0.00 0.25 0.25 98 1012.9
20260504195619 8 111 3.2 8.0 0.00 0.25 0.25 97 1012.8
20260504195411 8 108 3.2 8.0 0.00 0.25 0.25 97 1012.7
20260504195203 8 79 3.2 8.0 0.00 0.25 0.25 97 1012.9
20260504194954 8 119 1.6 8.0 0.00 0.25 0.25 96 1013.0
20260504194431 8 117 0.0 3.2 0.00 0.25 0.25 96 1013.2
20260504194232 8 114 0.0 1.6 0.00 0.25 0.25 95 1013.1
20260504194023 8 118 0.0 0.0 0.00 0.25 0.25 95 1013.2
20260504193818 8 241 0.0 0.0 0.00 0.25 0.25 95 1013.2
20260504193611 8 241 0.0 0.0 0.00 0.25 0.25 95 1013.2
20260504193405 8 241 0.0 0.0 0.00 0.25 0.25 95 1013.2
20260504193205 8 241 0.0 0.0 0.00 0.25 0.25 95 1013.2
20260504193006 8 241 0.0 0.0 0.00 0.25 0.25 95 1013.2
20260504192806 8 241 0.0 0.0 0.00 0.25 0.25 95 1013.1
20260504192559 8 241 0.0 1.6 0.00 0.25 0.25 95 1013.2
20260504192359 8 223 0.0 0.0 0.00 0.25 0.25 95 1013.2
20260504191833 8 205 0.0 0.0 0.00 0.25 0.25 95 1013.2
20260504191627 8 205 0.0 0.0 0.00 0.25 0.25 95 1013.1
20260504191416 8 205 0.0 0.0 0.00 0.25 0.25 95 1013.1
20260504191216 8 205 0.0 0.0 0.00 0.25 0.25 95 1013.0
20260504191013 8 204 0.0 0.0 0.00 0.25 0.25 95 1013.1
20260504190806 9 204 0.0 0.0 0.00 0.25 0.25 95 1013.1
20260504190606 9 204 0.0 0.0 0.00 0.25 0.25 94 1013.1
20260504190404 9 203 0.0 0.0 0.00 0.25 0.25 94 1013.1
20260504190202 9 203 0.0 0.0 0.00 0.25 0.25 94 1013.0
20260504185313 9 216 0.0 3.2 0.00 0.25 0.25 95 1013.0
20260504185113 9 212 0.0 3.2 0.00 0.25 0.25 95 1013.1
20260504184543 8 214 0.0 3.2 0.00 0.25 0.25 95 1013.1
20260504184338 8 219 0.0 3.2 0.00 0.25 0.25 95 1013.2
20260504184135 8 205 0.0 3.2 0.00 0.25 0.25 95 1013.2
20260504183927 8 227 0.0 4.8 0.00 0.25 0.25 95 1013.1
20260504183718 8 229 0.0 4.8 0.00 0.25 0.25 95 1013.1
20260504183159 9 207 1.6 4.8 0.00 0.25 0.25 95 1013.1
20260504182634 9 188 1.6 4.8 0.00 0.25 0.25 95 1013.0
20260504182434 9 226 1.6 4.8 0.00 0.25 0.25 95 1013.1
20260504182229 9 210 1.6 4.8 0.00 0.25 0.25 95 1013.1
20260504182028 9 228 1.6 4.8 0.00 0.25 0.25 95 1013.1
20260504181829 8 209 0.0 4.8 0.00 0.25 0.25 95 1013.1
20260504181623 8 223 0.0 4.8 0.00 0.25 0.25 96 1013.2
20260504181420 8 236 0.0 4.8 0.00 0.25 0.25 96 1013.1
20260504181211 8 152 0.0 4.8 0.00 0.25 0.25 95 1013.1
20260504181003 8 229 0.0 4.8 0.00 0.25 0.25 95 1013.3
20260504180801 8 222 1.6 4.8 0.00 0.25 0.25 95 1013.3
20260504180558 8 227 0.0 4.8 0.00 0.25 0.25 96 1013.4
20260504180352 8 233 0.0 4.8 0.00 0.25 0.25 95 1013.4
20260504175827 8 240 0.0 6.4 0.00 0.25 0.25 95 1013.4
20260504175619 8 222 0.0 6.4 0.00 0.25 0.25 95 1013.4
20260504175420 8 226 0.0 6.4 0.00 0.25 0.25 95 1013.5
20260504175212 8 208 0.0 6.4 0.00 0.25 0.25 95 1013.4
20260504175005 8 210 1.6 6.4 0.00 0.25 0.25 95 1013.4
20260504174803 8 222 1.6 6.4 0.00 0.25 0.25 95 1013.4
20260504174600 8 214 1.6 6.4 0.00 0.25 0.25 94 1013.4
20260504174352 8 232 1.6 6.4 0.00 0.25 0.25 94 1013.4
20260504174150 8 241 1.6 6.4 0.00 0.25 0.25 94 1013.4
20260504173947 8 210 1.6 6.4 0.00 0.25 0.25 94 1013.4
20260504173737 8 192 1.6 6.4 0.00 0.25 0.25 94 1013.5
20260504173213 8 221 1.6 6.4 0.00 0.25 0.25 95 1013.4
20260504173010 8 245 1.6 6.4 0.00 0.25 0.25 95 1013.3
20260504172800 8 219 0.0 6.4 0.00 0.25 0.25 95 1013.4
20260504172551 8 181 0.0 3.2 0.00 0.25 0.25 95 1013.4
20260504172023 8 224 0.0 4.8 0.00 0.25 0.25 96 1013.4
20260504171817 8 221 0.0 4.8 0.00 0.25 0.25 96 1013.4
20260504171616 8 137 0.0 4.8 0.00 0.25 0.25 96 1013.4
20260504171410 8 207 0.0 4.8 0.00 0.25 0.25 96 1013.6
20260504170847 8 241 0.0 3.2 0.00 0.25 0.25 96 1013.6
20260504170328 8 224 0.0 3.2 0.00 0.25 0.25 96 1013.6
20260504170120 8 207 0.0 3.2 0.00 0.25 0.25 96 1013.6